Home   Weather   Bruck an der Mur   Past weeks

Flag for Austria Past Weather in Bruck an der Mur, Styria, Austria — Yesterday and Last 2 Weeks

37 °F

Passing clouds.

Feels Like: 37 °F
Forecast: 28 / 52 °F
Wind: 1 mph from North

Location: Zeltweg

Current Time: Oct 21, 2016 at 10:18:07 PM

Latest Report: Oct 21, 2016 at 9:50 PM

Visibility: 12 mi

Pressure: 29.98 "Hg

Humidity: 93%

Dew Point: 36 °F

Location of Bruck an der MurLocation

Past Weather in Bruck an der Mur — Graph


Bruck an der Mur Temperature Yesterday

Maximum temperature yesterday: 37 °F (at 4:50 AM)
Minimum temperature yesterday: 34 °F (at 8:20 AM)
Average temperature yesterday: 36 °F

High & Low Weather Summary for the Past Weeks

High68 °F (Oct 16, 4:20 PM)100% (Oct 8, 6:50 AM)30.36 "Hg (Oct 8, 6:50 AM)
Low25 °F (Oct 13, 5:50 AM)36% (Oct 13, 4:20 PM)29.89 "Hg (Oct 11, 4:50 PM)
Average46 °F81%30.06 "Hg
* Reported Oct 6 8:50 PM — Oct 21 8:50 PM, Bruck an der Mur, Weather by CustomWeather, © 2016

Note: Actual official high and low records may vary slightly from our data, if they occured in-between our weather recording intervals... More about our weather records


Bruck an der Mur Weather History for the Previous 24 Hours

Scroll right to see more
Time TempWeatherWind HumidityBarometerVisibility
8:50 PM
Fri, Oct 21
39 °FPassing clouds.1 mph87%29.98 "Hg12 mi
7:50 PM39 °FPassing clouds.1 mph87%29.95 "Hg19 mi
6:50 PM41 °FPassing clouds.3 mph81%29.95 "Hg19 mi
6:20 PM41 °FPassing clouds.2 mph87%29.95 "Hg19 mi
5:50 PM45 °FPassing clouds.2 mph76%29.92 "Hg19 mi
5:20 PM46 °FPassing clouds.1 mph66%29.92 "Hg19 mi
4:50 PM48 °FPassing clouds.2 mph66%29.92 "Hg19 mi
4:20 PM46 °FPassing clouds.1 mph66%29.92 "Hg19 mi
3:50 PM48 °FPassing clouds.1 mph62%29.92 "Hg19 mi
3:20 PM46 °FPassing clouds.3 mph71%29.92 "Hg19 mi
2:50 PM46 °FPassing clouds.3 mph66%29.92 "Hg19 mi
2:20 PM45 °FPassing clouds.2 mph71%29.92 "Hg19 mi
1:50 PM45 °FPassing clouds.1 mph71%29.92 "Hg19 mi
1:20 PM43 °FScattered clouds.2 mph71%29.95 "Hg19 mi
12:50 PM45 °FBroken clouds.1 mph71%29.95 "Hg19 mi
12:20 PM43 °FBroken clouds.2 mph76%29.95 "Hg19 mi
11:50 AM41 °FBroken clouds.2 mph81%29.95 "Hg19 mi
11:20 AM41 °FBroken clouds.1 mph81%29.95 "Hg16 mi
10:50 AM39 °FBroken clouds.2 mph87%29.95 "Hg9 mi
10:20 AM39 °FBroken clouds.2 mph87%29.95 "Hg9 mi
9:50 AM39 °FBroken clouds.2 mph87%29.95 "Hg7 mi
9:20 AM37 °FPartly sunny.5 mph87%29.95 "Hg6 mi
8:50 AM37 °FPartly sunny.3 mph93%29.95 "Hg6 mi
8:20 AM37 °FBroken clouds.1 mph93%29.95 "Hg6 mi
7:50 AM37 °FBroken clouds.2 mph93%29.95 "Hg6 mi
7:20 AM37 °FPartly cloudy.2 mph93%29.95 "Hg6 mi
6:50 AM37 °FPartly cloudy.2 mph93%29.95 "Hg6 mi
4:50 AM37 °FLow clouds.2 mph93%29.95 "Hg4 mi
10:50 PM
Thu, Oct 20
37 °FLow clouds.2 mph93%29.98 "Hg6 mi
Weather by CustomWeather, © 2016

See weather overviewHow to use our weather pages